TimeCDT,TemperatureF,Dew PointF,Humidity,Sea Level PressureIn,VisibilityMPH,Wind Direction,Wind SpeedMPH,Gust SpeedMPH,PrecipitationIn,Events,Conditions,WindDirDegrees,DateUTC
12:55 AM,61.5,59.9,94,30.00,10.0,NNW,3.5,-,N/A,,Clear,330,2012-10-25 05:55:00
1:55 AM,61.9,60.4,95,29.99,10.0,NNE,3.5,-,N/A,,Clear,20,2012-10-25 06:55:00
2:55 AM,64.6,60.8,88,29.97,10.0,ENE,5.8,-,N/A,,Clear,60,2012-10-25 07:55:00
3:55 AM,64.8,61.9,90,29.96,10.0,NE,3.5,-,N/A,,Clear,40,2012-10-25 08:55:00
4:55 AM,62.4,61.0,95,29.97,10.0,NNE,3.5,-,N/A,,Clear,30,2012-10-25 09:55:00
5:55 AM,62.8,61.9,97,29.98,10.0,NE,4.6,-,N/A,,Clear,50,2012-10-25 10:55:00
6:55 AM,63.1,62.1,96,29.99,10.0,NE,5.8,-,N/A,,Clear,40,2012-10-25 11:55:00
7:55 AM,64.4,62.6,94,30.00,10.0,NE,5.8,-,N/A,,Clear,40,2012-10-25 12:55:00
8:55 AM,66.2,62.6,88,30.00,10.0,NE,6.9,-,N/A,,Clear,50,2012-10-25 13:55:00
9:55 AM,75.2,68.2,79,30.01,10.0,East,11.5,-,N/A,,Clear,90,2012-10-25 14:55:00
10:55 AM,78.3,68.9,73,30.01,10.0,East,10.4,-,N/A,,Clear,90,2012-10-25 15:55:00
11:55 AM,80.1,69.1,69,29.99,10.0,East,8.1,-,N/A,,Clear,90,2012-10-25 16:55:00
12:44 PM,82.4,66.2,58,29.98,10.0,Variable,6.9,-,N/A,Rain,Light Rain,0,2012-10-25 17:44:00
12:54 PM,82.4,66.2,58,29.97,10.0,Variable,6.9,-,N/A,,Clear,0,2012-10-25 17:54:00
12:55 PM,81.5,66.2,60,29.98,10.0,East,6.9,-,0.00,,Clear,90,2012-10-25 17:55:00
1:16 PM,82.4,66.2,58,29.97,10.0,SE,5.8,-,N/A,Rain,Light Rain,130,2012-10-25 18:16:00
1:52 PM,82.4,66.2,58,29.95,10.0,South,6.9,-,N/A,,Clear,170,2012-10-25 18:52:00
1:55 PM,82.4,66.2,58,29.95,10.0,SSE,6.9,-,0.00,,Clear,150,2012-10-25 18:55:00
1:56 PM,82.4,66.2,58,29.95,10.0,SE,5.8,-,N/A,Rain,Light Rain,130,2012-10-25 18:56:00
2:08 PM,82.4,66.2,58,29.95,10.0,South,8.1,-,N/A,,Clear,170,2012-10-25 19:08:00
2:55 PM,82.0,66.6,59,29.94,10.0,South,6.9,-,0.00,,Clear,170,2012-10-25 19:55:00
3:55 PM,81.3,64.9,57,29.94,10.0,SSW,5.8,-,N/A,,Clear,200,2012-10-25 20:55:00
4:55 PM,80.8,64.0,57,29.94,10.0,SW,3.5,-,N/A,,Clear,220,2012-10-25 21:55:00
5:15 PM,78.8,64.4,61,29.94,10.0,SSW,3.5,-,N/A,,Light Drizzle,210,2012-10-25 22:15:00
5:21 PM,78.8,62.6,57,29.94,10.0,SW,3.5,-,N/A,,Clear,220,2012-10-25 22:21:00
5:55 PM,77.4,65.7,67,29.94,10.0,WNW,4.6,-,0.00,,Clear,290,2012-10-25 22:55:00
6:55 PM,73.4,65.1,75,29.95,10.0,Calm,Calm,-,N/A,,Clear,0,2012-10-25 23:55:00
7:55 PM,68.5,64.9,88,29.95,10.0,North,4.6,-,N/A,,Clear,350,2012-10-26 00:55:00
8:55 PM,66.6,64.4,93,29.95,10.0,North,5.8,-,N/A,,Partly Cloudy,360,2012-10-26 01:55:00
9:55 PM,65.5,63.1,92,29.95,10.0,North,6.9,-,N/A,,Clear,360,2012-10-26 02:55:00
10:55 PM,64.6,62.4,93,29.95,10.0,North,6.9,-,N/A,,Clear,360,2012-10-26 03:55:00
11:55 PM,64.2,62.2,93,29.93,10.0,North,6.9,-,N/A,,Clear,360,2012-10-26 04:55:00